Location: Battery Park City
(40.7115°N, 74.0163°W)
Time: 06:42:31
(UTC+00:00)

Cosmos 1536 - Pass Details

Date: 08 December 2019
Orbit: 540 x 559 km, 82.5° (Epoch: 17 January)

Event Time Altitude Azimuth Distance (km) Brightness Sun altitude
Rises 23:19:55 0° 343° (NNW) 2,733 6.4 -20.4°
Reaches altitude 10° 23:22:13 10° 334° (NNW) 1,831 5.6 -20.9°
Maximum altitude 23:25:53 35° 269° (W) 899 4.5 -21.5°
Drops below altitude 10° 23:29:31 10° 203° (SSW) 1,806 5.9 -22.2°
Sets 23:31:47 0° 194° (SSW) 2,691 6.7 -22.6°
